CAPE
562 678 480 543 481 797 863 895 902 975 877 860 1072 1024 1075 1091 984 979 983 1053 1100 1209 1262 1265 1267 1262 1288 1302 1297 1354 1326 1306 1286 1238 1260 1438 1531 1504 1490 1498 1447 1397 1376 1413 1358 1359 1314 1306 1255 1298 1243 1356 1344 1396 1451 1505 1601 1558 1643 1676 1718 1779 1758 1702 1613 1453 1552 1480 1448 1523 1344 1481 1492 1492 1426 1532 1453 1329 1218 1103 597 614 657 780 686
721 676 663 536 736 902 989 993 924 934 901 912 804 834 921 1109 936 991 1074 1076 1124 1189 1178 1199 1230 1234 1219 1237 1290 1307 1268 1312 1360 1241 1234 1285 1443 1453 1377 1309 1293 1338 1386 1444 1429 1335 1282 1242 1250 1261 1235 1255 1272 1405 1451 1510 1541 1587 1684 1724 1700 1751 1831 1899 1849 1619 1414 1261 1310 1294 1529 1548 1557 1552 1584 1513 1456 1331 1269 1146 820 742 726 575 642
549 761 692 723 785 810 909 1004 854 867 819 735 662 683 783 927 1012 963 980 1031 1107 1161 1215 1222 1266 1324 1304 1256 1266 1238 1278 1327 1286 1253 1185 1250 1266 1199 1340 1374 1379 1412 1392 1356 1340 1332 1296 1307 1232 1275 1270 1232 1326 1474 1486 1517 1552 1584 1639 1683 1678 1783 1754 1949 1960 1650 1304 1406 1119 1078 1152 1588 1558 1489 1368 1336 1388 1292 1180 1136 1180 1027 764 808 775
648 631 606 874 907 810 822 976 962 906 841 840 720 627 719 852 957 957 981 996 1031 1120 1198 1254 1242 1198 1203 1195 1248 1202 1184 1206 1245 1183 1174 1024 1036 1040 1056 1201 1263 1330 1376 1368 1384 1366 1373 1282 1299 1276 1303 1294 1406 1503 1516 1543 1587 1491 1487 1591 1796 1646 1836 1915 1710 1183 1229 1113 980 687 913 1270 1643 1141 1180 1321 1403 1404 1254 1242 1138 1182 1129 1251 1009
861 782 933 829 800 781 848 908 841 975 1050 906 710 673 723 842 950 1012 994 1062 1114 1098 1139 1133 1130 1147 1163 1264 1256 1259 1224 1208 1219 1203 1116 1072 1036 1025 1086 1109 1159 1193 1229 1276 1305 1290 1267 1301 1374 1462 1431 1416 1451 1540 1514 1575 1663 1652 1562 1664 1649 1580 1476 1550 1411 1450 1748 1135 751 614 765 1021 1558 1412 1143 1013 1435 1426 1333 1274 1013 1236 1316 1161 1123
350 590 820 983 814 720 723 806 792 729 802 862 889 685 683 890 981 1043 1037 1068 1050 1065 1105 1135 1123 1120 1141 1152 1176 1143 1154 1183 1128 1185 1149 1104 1084 1069 1217 1181 1217 1257 1267 1280 1296 1299 1305 1335 1467 1538 1489 1494 1554 1674 1641 1685 1693 1828 1662 1529 1562 1696 1718 1518 1282 1193 1452 1431 889 1205 936 1177 1596 1480 1116 1120 999 1000 1071 1075 1028 1176 1279 1167 1186
735 830 924 945 873 864 760 720 770 854 833 902 980 1018 1007 996 1000 1070 1077 1002 1000 1039 1044 1129 1145 1121 1075 1100 1090 1121 1073 1015 1069 1095 1174 1209 1227 1304 1299 1327 1303 1328 1323 1302 1239 1246 1266 1285 1373 1467 1299 1393 1662 1666 1667 1660 1651 1768 1620 1478 1650 1494 1657 1522 1265 1240 1286 1205 1194 1172 1665 1117 1471 1469 1272 1195 994 1094 1166 1219 1212 1099 1317 1163 1251
974 961 896 865 861 855 639 615 855 932 937 983 940 936 922 933 926 944 981 955 926 924 983 1028 1070 1082 1141 1182 1155 1059 1053 1050 1039 1092 1173 1275 1353 1378 1384 1340 1316 1327 1305 1444 1350 1224 1333 1356 1482 1424 1419 1520 1648 1707 1712 1683 1650 1751 1697 1658 1579 1726 1464 1227 1278 1190 968 781 991 1208 1314 1255 1320 1398 1174 1382 1321 1423 1480 1192 1265 1127 1146 1119 1312
907 1092 980 818 824 795 730 779 988 947 881 850 886 901 936 931 958 973 968 983 948 934 956 1038 1044 1087 1104 1129 1122 1055 1064 1042 1038 1212 1292 1434 1518 1597 1559 1467 1481 1446 1398 1486 1514 1521 1627 1562 1551 1576 1637 1709 1706 1734 1726 1708 1739 1732 1646 1524 1793 1674 1266 1118 1143 1056 769 741 1088 1382 1554 1363 1167 1342 1363 1357 1347 1265 1238 1155 1159 1169 1024 1454 1388
830 673 594 598 794 823 756 876 966 866 910 898 872 1001 918 927 941 928 916 982 952 994 1017 987 1006 1043 1007 1035 1043 1073 1133 1144 1259 1353 1409 1548 1663 1714 1784 1832 1747 1725 1655 1654 1616 1626 1662 1661 1746 1796 1826 1818 1778 1778 1779 1834 1822 1670 1631 1820 1834 1700 1131 860 986 1307 1042 1111 1574 1519 1206 1283 1072 1314 1344 1232 1102 1114 1154 1253 1319 1438 1360 1382 1340
621 913 684 796 968 881 741 913 931 846 889 914 1004 1016 984 1035 1075 1024 927 926 956 1021 1062 1062 1052 1010 1003 957 966 1070 1164 1260 1320 1424 1440 1432 1468 1525 1693 1722 1827 1974 2062 1921 2026 1811 1859 1868 1803 2007 2047 1940 1871 1890 1958 1954 1885 1678 1849 1801 1830 1697 1621 1216 961 1004 1510 1263 1490 1412 1232 1236 1248 1384 1193 1217 1301 1148 1321 1215 1258 1070 1154 1432 1304
863 918 751 1005 686 864 828 965 819 993 968 894 863 814 852 907 921 1017 1060 1050 1018 1053 1039 1007 982 974 886 864 908 934 1032 1048 1068 1206 1260 1333 1371 1533 1707 1843 1769 1816 1780 1804 1934 2122 2237 2218 2047 2262 2181 1994 1889 2015 2028 2044 1936 1849 1844 1811 1761 1567 1705 1066 1189 1254 1278 1539 1206 1326 1231 1308 1508 1408 1341 1628 1680 1440 1583 1221 1101 1107 1152 1148 1422
798 753 783 886 967 908 911 953 1009 945 863 835 821 769 811 978 1007 979 944 985 972 1038 1013 1008 1023 952 879 851 822 822 834 822 1013 1092 1159 1260 1318 1394 1590 1813 1954 1827 1719 1663 1726 1809 2049 2285 2238 2236 2179 2166 2087 2020 2112 2138 2024 1932 1757 1734 1657 1616 1454 1233 1248 1253 1538 1639 1366 1316 1186 1348 1564 1493 1496 1489 1516 1365 1437 1324 1117 1228 1314 1392 1050
842 851 776 786 980 1188 1014 1046 931 828 855 820 793 876 953 1126 1054 984 1040 1051 1052 1076 1084 1063 1015 943 904 801 852 870 723 798 914 929 926 1011 1005 1185 1233 1468 1787 1837 1745 1728 1633 1677 1969 2133 2218 2428 2465 2292 2105 2018 2152 2151 2095 2023 1965 1707 1571 1451 1772 1307 1187 1566 1413 936 1330 1312 1376 1592 1408 1402 1321 1393 1358 1532 1395 1270 1220 1124 1316 1254 1233
861 968 807 785 865 936 1103 938 958 851 813 896 886 866 1045 1015 1010 1014 1072 1108 1068 1028 1070 1022 965 937 951 904 915 956 988 997 878 764 663 564 530 845 1001 1125 1343 1631 1731 1783 1660 1516 1726 2274 2301 2110 2354 2529 2201 2105 2168 2204 2180 2088 2010 1790 1651 1589 1677 1392 856 1123 1108 1001 1103 1225 1247 1375 1574 1669 1585 1568 1412 1338 1572 1481 1282 1363 1266 1453 1451
935 872 749 789 863 932 884 974 885 864 896 838 844 989 1028 1097 1215 1142 1068 1124 1056 1013 1016 931 938 1029 1172 971 928 798 756 654 639 653 482 276 379 624 895 1042 1059 1318 1393 1567 1532 1363 1562 1967 2469 2251 2349 2492 2430 2363 2208 2162 2166 2223 1980 1833 1451 1603 1435 1616 755 939 633 684 1066 1184 1061 1394 1416 1611 1592 1603 1590 1572 1547 1425 1340 1034 1440 1067 1273
846 640 552 795 764 822 935 892 928 909 901 972 1038 1085 1105 1103 1258 1071 1162 1182 1235 1105 970 1076 1135 1208 1086 854 675 637 458 181 151 140 205 264 225 476 624 757 727 887 1089 1318 1419 1363 1393 1583 2119 2562 2648 2590 2412 2279 2344 2193 1992 2077 2266 2005 1724 1534 1516 2074 809 467 685 1062 1017 958 988 1291 1294 1054 1240 1272 1434 1397 1304 1510 1352 1290 1205 1247 1061
658 673 474 463 701 836 1009 993 943 985 926 949 1058 1119 1120 1060 1026 1062 1167 1354 1387 1408 1277 1170 1050 892 599 425 510 576 504 352 160 23 18 82 131 422 546 578 568 591 686 956 1126 1243 1244 1431 1749 2290 2793 2665 2669 2686 2590 2252 2227 2172 2586 2472 2140 1621 1485 709 698 512 871 1004 875 1261 1048 1313 1443 1119 1228 1199 1081 912 1090 1194 1062 852 1245 1178 1376
497 717 818 552 968 1325 702 952 782 1042 924 1075 1124 915 1060 1031 1085 1078 1038 1003 1086 1181 1065 728 323 156 147 158 290 424 522 369 155 54 5 35 78 42 276 354 387 350 459 707 793 921 1135 1276 1520 2074 2633 2800 2519 2417 2015 1892 2282 2437 2167 2219 868 483 618 712 146 261 548 446 666 761 856 993 1068 1030 1095 1091 1052 972 972 903 979 1177 992 710 828
734 421 490 639 1013 966 818 957 1031 1284 1301 1091 1245 1210 1112 1107 979 922 884 828 784 714 668 559 282 179 128 134 320 592 229 131 128 25 0 1 51 43 91 232 237 250 302 346 596 610 670 1064 1474 2008 2540 2716 2767 2826 2174 2283 1871 2410 2542 2577 1177 590 548 90 41 126 238 538 670 692 826 721 628 587 542 505 477 538 581 622 623 610 603 583 574
541 395 470 536 870 960 901 795 1064 1272 992 960 1254 946 1045 1061 830 527 308 279 250 118 22 41 10 100 309 130 170 257 252 34 7 0 12 0 0 0 0 1 206 153 182 286 238 415 417 616 1266 2130 2589 2817 2952 2598 2315 1724 2356 2077 2178 2369 2413 199 65 1 13 114 187 391 580 621 759 562 391 415 447 471 467 484 437 331 311 317 340 368 438
657 481 673 660 923 1033 813 678 970 1290 1171 1083 595 827 882 649 430 452 293 211 163 235 277 448 750 471 487 636 250 142 566 0 0 0 65 0 0 0 0 0 34 163 99 214 337 178 334 449 596 2010 2705 2841 2815 1778 1594 1556 1674 2316 2413 2074 99 163 91 54 35 79 345 352 504 458 490 457 388 302 300 301 332 364 379 403 380 384 385 423 529
397 486 821 826 845 995 800 712 946 1225 1291 670 591 830 668 434 185 146 264 194 412 770 81 195 12 16 17 61 222 86 28 8 0 0 0 0 0 0 0 0 41 90 0 0 0 339 223 222 743 1622 2798 2968 2628 760 626 817 1184 1454 2062 2634 132 78 50 57 50 87 186 350 254 416 406 337 326 320 283 312 322 297 310 344 343 348 414 451 467
568 458 678 610 536 912 773 690 807 1288 446 247 175 176 308 451 450 165 539 246 398 74 10 44 18 34 78 290 86 7 11 486 0 0 0 295 0 0 0 1 1 196 0 0 0 126 455 5 760 1466 2377 2422 522 593 475 750 1277 933 1395 106 114 161 127 48 56 135 130 218 255 355 228 197 169 120 109 131 205 209 171 192 267 276 257 289 367
521 626 557 433 544 849 937 770 583 512 302 163 226 374 44 15 30 17 16 32 39 25 49 12 26 5 107 11 8 4 25 2 0 0 0 0 2 16 34 22 11 0 0 70 71 0 250 0 15 1237 1317 1603 371 448 639 944 1321 863 268 330 254 189 124 138 138 226 336 341 320 268 251 239 207 167 151 140 138 107 135 245 201 218 280 240 178
633 605 727 628 585 792 904 623 497 274 221 232 68 14 170 17 0 5 2 68 9 24 33 15 0 13 5 7 207 19 79 10 4 0 0 1 0 0 4 0 4 0 1 0 0 0 5 0 0 44 329 110 319 371 427 1015 980 434 388 410 450 464 251 211 253 311 384 450 296 304 493 420 355 333 258 194 143 136 168 148 145 192 220 244 190
554 537 803 768 895 731 757 490 361 300 14 38 6 4 9 5 2 4 0 1 204 16 5 0 13 4 27 12 31 30 14 24 16 0 0 0 0 0 5 3 6 0 0 19 0 0 0 0 0 0 0 2 20 17 132 49 202 69 246 207 274 210 121 126 171 324 570 720 808 728 672 689 651 555 392 249 174 166 145 130 125 148 167 186 100
334 587 676 881 661 756 599 391 244 186 104 4 20 2 0 0 12 48 4 56 24 14 26 18 19 31 56 31 26 1 14 3 0 3 0 0 0 0 0 0 1 1 0 0 0 0 0 0 0 0 0 0 4 37 28 32 59 66 198 204 24 14 32 26 113 344 558 660 875 1066 972 804 728 644 528 463 328 204 126 130 109 124 147 118 139
630 691 915 770 808 432 320 321 80 7 28 29 0 0 3 0 4 14 9 22 21 42 30 58 24 11 16 6 9 15 0 0 0 0 0 0 0 0 0 0 0 0 1 0 0 37 18 0 0 0 29 0 0 46 10 9 30 95 124 102 2 5 6 7 74 317 362 407 433 665 748 726 704 629 553 576 390 354 213 144 150 144 107 128 119
645 634 580 677 601 238 32 105 210 122 172 2 0 0 0 11 0 3 22 26 30 31 42 21 8 23 23 36 11 8 6 0 0 0 0 0 0 0 2 0 0 0 1 0 0 1 1 1 2 0 0 1 0 0 16 7 1 21 13 13 9 2 7 1 85 177 164 240 194 248 353 290 228 206 278 395 431 388 309 276 244 164 129 85 73
687 589 673 621 677 524 1 49 18 26 0 0 3 2 0 13 5 17 19 29 29 40 26 36 28 31 39 24 6 1 8 0 0 0 0 0 0 0 0 0 0 0 0 0 0 1 0 0 0 0 0 0 1 24 3 9 2 0 37 10 6 3 16 49 56 61 101 52 26 22 93 129 28 11 12 17 25 46 46 34 56 49 34 42 40
515 378 420 492 648 208 82 3 1 1 50 10 3 0 5 9 17 16 28 9 33 38 20 17 16 31 24 22 19 2 0 0 0 0 0 0 0 0 0 0 0 0 0 0 0 0 0 0 0 0 0 0 0 0 0 0 1 0 0 3 0 2 0 29 16 66 80 27 10 4 1 2 2 1 0 0 0 0 0 0 0 0 0 0 0
221 286 192 265 199 43 48 14 5 15 1 0 12 0 31 4 13 25 29 45 49 25 25 12 27 19 32 21 3 0 0 0 0 0 0 0 0 0 0 0 0 0 0 0 0 0 26 0 0 0 0 0 0 0 0 0 0 0 0 0 0 0 0 0 0 42 42 19 4 5 0 0 0 0 0 0 0 0 0 0 0 0 0 0 0
45 93 165 195 123 128 17 26 17 5 0 0 7 20 22 12 24 38 16 40 17 10 27 45 55 31 8 6 0 0 0 0 0 0 0 0 0 0 0 0 0 0 0 0 0 0 4 4 0 0 0 0 0 0 4 0 0 0 0 0 0 6 2 0 0 0 0 0 4 1 0 0 0 0 0 0 0 0 0 0 0 0 0 0 0
94 74 66 17 150 45 25 0 5 7 8 0 0 2 27 8 18 28 61 29 34 48 36 23 35 31 4 0 0 0 0 0 0 0 0 0 0 0 0 0 0 0 0 0 86 0 0 0 3 0 2 0 0 0 0 3 0 0 0 1 0 0 0 0 0 0 0 0 0 0 0 0 0 0 0 0 0 0 0 0 0 0 0 0 0
130 97 43 99 22 12 9 2 10 3 3 11 3 16 81 32 25 24 48 56 84 46 273 50 29 50 25 0 0 0 0 0 0 0 0 0 0 0 0 0 0 0 0 0 3 0 0 0 2 2 31 0 0 0 0 0 0 0 0 0 0 3 0 0 0 0 0 0 0 0 0 0 0 0 0 0 0 0 0 0 0 0 0 0 0
142 76 29 33 4 2 10 13 13 6 9 6 2 26 17 18 21 38 19 38 24 39 47 45 28 12 4 1 0 0 0 0 0 0 0 0 0 0 0 0 0 0 0 0 0 0 0 0 1 2 0 0 0 0 0 0 0 0 0 0 0 0 0 0 0 0 0 0 0 0 0 0 0 0 0 0 0 0 0 0 0 0 0 0 0
118 121 60 6 0 0 10 21 21 5 20 30 22 35 30 26 37 38 51 30 35 43 39 28 35 16 0 0 0 0 0 0 0 0 0 0 0 0 0 0 0 0 0 0 0 0 0 0 0 0 1 0 0 0 0 0 0 0 0 0 0 0 0 0 0 0 0 0 0 0 0 0 0 0 0 0 0 0 0 0 0 0 0 0 0
75 62 31 11 0 5 11 21 29 6 19 29 41 64 51 50 75 28 26 33 27 32 43 31 34 29 6 0 0 0 0 0 0 0 0 0 0 0 0 0 0 0 3 0 0 0 0 0 0 0 0 0 0 0 0 0 0 0 0 0 0 0 0 0 0 0 0 0 0 0 0 0 0 0 0 0 0 0 0 0 0 0 0 0 0
53 17 9 4 4 8 6 33 23 11 40 46 22 10 15 28 20 24 22 39 17 32 55 38 27 27 6 0 0 0 0 0 0 0 0 0 0 0 0 0 0 0 0 0 0 0 0 0 0 0 0 0 0 0 0 0 0 0 0 0 0 0 0 0 0 0 0 0 0 0 0 0 0 0 0 0 0 0 0 0 0 0 0 0 0
18 15 4 2 0 0 17 20 20 17 27 12 10 6 10 18 35 36 46 44 34 41 45 29 19 14 12 0 0 0 0 0 0 0 0 0 0 0 0 0 0 0 0 0 0 0 0 0 0 0 0 0 0 0 0 0 0 0 0 0 0 0 0 0 0 0 0 0 0 0 0 0 0 0 0 0 0 0 0 0 0 0 0 0 0
12 7 4 3 2 4 14 17 24 16 40 7 12 24 11 16 46 26 21 25 24 23 22 40 18 9 15 0 4 2 0 0 0 0 0 0 0 0 0 0 0 0 0 0 0 0 0 0 0 2 0 0 0 0 0 0 0 0 0 0 0 0 0 0 0 0 0 0 0 0 0 0 0 0 0 0 0 0 0 0 0 0 0 0 0
0 0 0 2 4 8 29 21 5 19 25 36 66 167 72 41 50 36 52 33 49 50 15 20 20 13 22 0 0 0 0 0 0 0 0 0 0 0 0 0 0 0 0 0 0 0 0 0 0 1 0 0 0 0 0 0 0 0 0 0 0 0 0 0 0 0 0 0 0 0 0 0 0 0 0 0 0 0 0 0 0 0 0 0 0
12 0 2 4 0 12 19 29 8 16 32 17 136 130 60 56 228 260 121 59 36 23 30 34 24 14 8 3 0 0 0 0 0 0 0 0 0 0 0 0 0 0 0 0 0 0 0 0 0 0 0 0 0 0 0 0 0 0 0 0 6 0 0 0 0 0 0 0 0 0 0 0 0 0 0 0 0 0 0 0 0 0 0 0 0
0 0 1 0 0 4 16 28 7 17 54 15 112 83 79 187 69 78 70 43 41 33 29 24 23 24 34 10 0 0 0 0 0 0 0 0 0 0 0 0 0 0 0 0 0 0 0 0 0 0 0 0 0 0 0 0 0 0 0 0 0 12 0 0 0 0 0 0 0 0 0 0 0 0 0 0 0 0 0 0 0 0 0 0 0
0 0 0 0 0 0 9 27 17 12 48 24 110 86 178 80 105 96 49 48 55 56 67 40 41 24 5 11 0 0 0 0 0 0 0 0 0 0 0 0 0 0 0 0 0 0 0 0 0 0 0 0 0 0 0 0 0 0 0 0 0 0 0 0 0 0 0 0 0 0 0 0 0 0 0 0 0 0 0 0 0 0 0 0 0
0 0 0 0 0 3 11 19 31 17 20 35 52 82 50 54 51 43 48 55 60 67 79 45 44 20 36 18 5 0 0 0 0 0 0 0 0 0 0 0 0 0 0 0 0 0 0 0 0 0 0 0 0 0 0 0 0 0 0 0 0 0 0 0 0 0 0 0 0 0 0 0 0 0 0 0 0 0 0 0 0 0 0 0 0
0 0 0 0 1 2 5 20 33 30 1 43 24 59 52 88 64 44 52 54 66 69 56 61 86 50 45 26 26 2 0 0 0 0 0 0 0 0 0 0 0 0 0 0 0 0 0 0 0 0 0 0 0 0 0 0 0 0 0 0 0 0 0 0 0 0 0 0 0 0 0 0 0 0 0 0 0 0 0 0 0 0 0 0 0
0 0 0 0 0 0 6 10 31 36 2 28 11 12 53 66 59 71 88 102 67 93 51 41 60 98 33 71 41 11 2 0 0 0 0 0 0 0 0 0 0 0 0 0 0 0 0 0 0 0 0 0 0 0 0 0 0 0 0 0 0 0 0 0 0 0 0 0 0 0 0 0 0 0 0 0 0 0 0 0 0 0 0 0 0
79 109 0 0 0 0 2 8 34 26 23 17 25 18 33 52 74 98 56 88 64 55 45 47 100 37 46 43 61 76 18 0 0 0 0 0 0 0 0 0 0 0 0 0 0 0 0 0 0 0 0 0 0 0 0 0 0 0 0 0 0 0 0 0 0 0 0 0 0 0 0 0 0 0 0 0 0 0 0 0 0 0 0 0 0
74 77 4 0 0 0 7 6 23 15 40 18 9 23 30 34 27 49 38 40 29 48 60 47 79 53 64 48 48 104 109 26 2 1 0 0 0 0 0 0 0 0 0 0 0 0 0 0 0 0 0 0 0 0 0 0 0 0 0 0 0 0 0 0 0 0 0 0 0 0 0 0 0 0 0 0 0 0 0 0 0 0 0 0 0
Wind_Speed
30 35 36 38 39 39 39 40 40 39 38 39 38 37 37 36 37 36 34 33 32 32 31 31 33 34 34 34 33 32 31 30 29 28 27 26 25 25 26 25 23 23 23 22 20 20 19 18 18 18 18 19 19 20 20 19 19 19 20 21 21 21 20 18 19 21 22 25 26 27 27 26 27 27 28 28 27 27 28 27 26 26 24 26 29
32 35 36 38 39 38 40 40 40 39 38 36 36 35 34 33 36 35 33 32 31 32 32 32 33 32 32 31 30 29 28 27 27 26 25 25 25 25 24 24 22 21 19 18 16 16 16 16 16 17 17 18 18 18 18 18 18 19 20 20 19 18 17 17 18 20 21 22 25 27 27 26 24 24 24 25 26 27 28 29 29 24 21 27 27
35 37 38 39 39 40 40 40 39 39 37 35 35 35 33 30 32 34 33 32 32 32 32 31 30 29 29 28 27 26 26 25 25 25 24 24 23 23 21 19 18 17 15 15 14 15 14 14 15 17 17 17 17 17 17 17 18 18 18 17 17 16 15 16 17 20 20 22 27 26 23 24 23 22 23 23 24 25 27 28 29 28 23 29 28
38 39 38 39 40 41 41 41 40 38 37 35 35 34 32 29 31 33 33 32 31 31 30 29 28 28 27 26 25 24 24 24 23 23 22 21 20 18 17 16 14 14 13 13 14 13 13 13 14 15 16 16 16 16 16 16 17 16 15 14 15 14 13 15 17 19 21 27 28 17 13 11 16 20 22 23 23 24 24 26 26 27 28 27 27
36 36 36 38 40 41 42 42 39 36 35 35 36 33 31 28 31 33 32 32 30 28 28 28 27 26 25 24 24 23 22 22 21 20 19 17 16 15 14 14 13 13 12 12 12 11 12 12 13 13 14 14 15 15 16 16 16 15 14 14 14 14 15 15 18 20 22 26 23 17 12 13 13 19 21 22 22 22 23 24 25 25 27 25 25
36 37 36 37 40 40 42 41 39 36 35 36 35 35 31 27 31 31 31 29 27 26 26 25 24 24 23 23 22 21 20 19 19 19 17 15 14 13 13 13 12 12 12 11 11 11 11 13 13 13 13 14 14 15 15 15 15 14 14 15 15 17 19 19 21 23 20 25 23 17 15 13 16 14 20 21 20 22 23 23 22 23 24 23 24
38 37 36 37 38 40 41 40 38 35 35 34 35 35 33 31 31 30 28 25 24 23 23 23 22 22 22 21 20 19 17 17 17 16 15 13 12 12 12 12 11 11 12 11 11 11 12 12 13 13 13 13 14 14 15 15 15 14 15 18 18 22 22 23 24 21 20 20 17 15 15 16 15 12 19 19 19 21 22 22 20 21 21 21 22
37 36 35 36 38 39 39 38 36 35 35 34 33 32 31 31 30 28 25 23 22 22 22 22 22 21 21 19 17 16 15 14 15 14 14 13 12 11 11 11 11 11 11 11 11 12 12 13 13 14 14 14 15 15 16 16 15 15 17 19 21 22 23 24 22 20 18 15 14 14 14 13 13 11 17 18 20 19 18 19 19 19 20 21 20
39 39 36 37 39 40 39 36 33 35 35 34 32 31 30 28 26 24 23 22 22 23 23 22 21 20 19 17 15 14 13 14 14 14 13 13 12 12 11 11 11 11 11 11 11 12 13 14 14 15 16 16 16 16 17 17 16 17 19 21 21 22 24 19 17 20 15 13 10 11 10 11 12 10 14 18 19 20 20 17 16 18 20 20 19
39 39 37 38 39 40 38 34 35 36 35 32 30 30 29 26 24 23 22 22 22 22 21 21 20 18 17 15 14 13 13 14 14 14 13 13 12 12 12 12 12 11 11 11 12 13 14 15 16 17 17 17 16 17 18 17 17 19 21 22 22 22 22 12 14 15 14 12 11 11 13 13 11 10 14 17 18 18 18 19 16 16 16 18 19
40 38 38 39 40 41 37 36 37 36 33 32 30 29 27 25 23 23 22 21 21 20 20 20 18 16 16 15 13 13 14 14 14 14 13 12 12 12 12 12 12 12 11 11 12 13 14 15 16 16 16 15 14 15 16 16 16 19 23 23 22 21 20 16 15 11 11 12 12 12 15 17 11 10 15 16 16 17 16 16 17 16 16 17 17
39 38 38 38 41 42 38 36 36 33 32 30 28 27 25 23 22 21 21 20 19 19 19 18 16 14 15 13 12 13 14 13 13 12 11 11 11 12 13 13 13 13 13 12 12 12 12 12 13 13 12 11 10 11 12 12 13 18 22 20 20 19 20 19 14 11 10 11 12 13 12 11 9 11 15 13 14 15 15 15 16 15 15 15 16
38 38 38 37 37 39 39 37 35 32 30 27 25 23 22 21 19 19 19 17 17 17 17 16 14 13 13 12 12 13 12 12 11 10 10 10 11 12 13 14 14 14 13 13 12 11 10 9 8 9 8 7 7 8 9 9 11 16 17 16 15 14 13 21 14 12 11 7 10 13 11 9 8 12 13 13 13 14 15 14 15 14 14 14 16
37 38 37 36 35 37 36 35 33 31 27 24 22 19 19 18 18 17 16 15 15 15 15 14 12 11 11 11 11 11 11 11 11 10 10 11 11 13 14 14 13 13 12 11 10 9 8 7 7 6 6 6 5 6 6 7 10 12 13 12 9 9 8 12 13 11 10 9 8 9 9 7 7 14 13 13 14 15 15 13 13 13 12 13 13
37 37 36 36 33 32 34 30 29 27 24 22 20 19 18 18 16 14 13 13 13 12 12 11 10 10 9 10 10 11 11 11 11 11 11 11 12 13 13 12 11 10 10 9 8 7 7 7 6 6 6 4 5 6 5 5 7 10 11 8 7 6 3 7 8 8 7 5 4 6 4 4 11 12 13 14 12 14 13 11 10 9 10 10 11
38 36 35 32 29 27 26 27 26 23 22 21 19 18 16 15 13 11 12 11 11 11 10 9 9 9 9 10 10 11 11 12 12 12 12 12 12 12 11 10 9 8 8 8 7 7 7 7 7 7 8 6 4 5 5 4 4 7 9 8 5 4 3 4 5 5 5 5 4 2 1 1 9 8 9 9 9 9 11 10 9 8 10 10 10
36 36 32 28 26 25 23 21 21 22 22 20 17 15 14 12 10 10 11 10 9 8 7 8 9 9 10 10 11 12 12 12 12 12 11 11 11 10 9 8 7 7 8 8 7 8 7 7 8 9 9 8 5 5 5 3 2 4 9 9 9 6 5 2 6 6 4 3 2 1 2 3 7 8 8 8 9 9 9 10 9 10 10 11 10
34 33 32 24 22 21 20 18 16 16 16 16 16 16 13 13 13 11 9 7 7 7 7 8 9 10 10 11 12 12 13 12 12 nan nan nan 9 9 8 7 7 7 8 8 9 9 9 8 9 9 11 10 8 6 4 3 2 1 3 9 8 6 4 7 6 6 5 4 1 1 2 5 11 10 11 12 12 13 11 13 13 11 13 12 12
31 27 28 26 22 19 18 15 13 12 11 11 12 14 14 13 11 9 7 6 6 7 8 9 10 12 12 11 10 12 13 14 13 nan nan nan nan nan 7 7 7 7 7 8 9 10 10 10 10 11 11 13 11 8 6 4 2 2 2 8 16 13 11 7 6 4 4 3 2 1 1 10 11 11 12 12 13 13 13 13 14 16 17 16 16
30 27 22 21 18 17 15 14 12 9 9 11 12 12 12 12 9 7 6 6 8 10 11 11 13 14 13 12 14 14 12 11 9 nan nan nan nan nan nan 8 7 7 8 8 8 10 10 10 11 11 13 14 13 10 7 5 3 4 6 9 9 10 5 nan nan 7 5 5 4 2 7 11 12 12 13 13 14 15 16 16 17 17 18 19 19
26 23 21 17 15 15 14 9 7 8 13 13 11 10 10 9 6 6 8 9 9 11 nan nan nan 14 13 12 11 7 8 nan nan nan nan nan nan nan nan nan 8 7 7 8 10 9 10 10 11 11 13 15 14 12 7 6 5 5 5 4 3 8 nan nan nan 6 5 5 6 6 13 12 12 14 14 15 16 17 17 17 18 19 20 21 21
24 22 18 15 14 13 13 8 6 9 13 9 7 8 6 6 5 6 5 7 10 11 12 13 16 13 13 9 7 8 9 nan nan nan nan nan nan nan nan nan nan 9 nan 7 8 10 11 11 10 12 16 15 15 9 8 7 6 5 5 6 nan 8 nan nan nan nan 7 6 7 10 17 16 15 15 17 17 18 19 19 19 20 21 22 23 23
23 20 17 15 13 11 12 9 8 8 10 10 7 7 7 5 4 5 5 8 11 14 nan 4 nan nan nan nan 8 nan nan nan nan nan nan nan nan nan nan nan nan nan nan nan nan 8 11 11 14 12 14 17 11 9 7 8 8 6 4 4 10 nan nan nan nan nan 8 8 7 16 18 18 18 17 18 19 20 20 21 21 22 22 23 24 24
20 18 18 15 12 6 9 10 9 10 7 5 4 3 3 3 2 3 5 8 6 nan nan nan nan nan nan 8 nan nan nan 10 nan nan nan 16 nan nan nan nan nan 16 nan nan nan 9 13 nan 13 16 12 10 9 8 6 7 8 7 7 11 10 10 12 nan nan 8 8 10 10 19 19 19 19 19 19 20 21 21 21 21 23 23 24 25 26
18 17 17 15 12 8 8 9 9 8 7 4 3 0 nan nan nan nan nan nan nan nan nan nan nan nan 7 nan nan nan nan nan nan nan nan nan nan nan nan nan nan nan nan nan nan nan 12 nan nan 13 12 11 9 9 7 6 6 4 7 11 11 9 12 12 11 10 9 9 10 20 21 20 20 20 21 22 23 22 24 24 23 25 26 26 27
18 16 15 16 13 11 11 8 8 7 6 3 nan nan 7 nan nan nan nan nan nan nan nan nan nan nan nan nan 11 nan nan nan nan nan nan nan nan nan nan nan nan nan nan nan nan nan nan nan nan nan 15 9 11 10 10 8 6 7 10 11 9 8 10 11 10 10 10 10 14 22 23 23 23 23 23 23 23 24 25 25 25 26 27 28 27
16 16 12 11 10 11 10 10 9 6 nan nan nan nan nan nan nan nan nan nan 4 nan nan nan nan nan nan nan nan nan nan nan nan nan nan nan nan nan nan nan nan nan nan nan nan nan nan nan nan nan nan nan nan nan 10 nan 7 nan 10 11 9 9 9 10 10 10 11 13 15 24 24 25 24 24 24 23 23 24 24 24 24 24 24 24 nan
17 15 13 12 10 12 11 10 8 5 1 nan nan nan nan nan nan nan nan nan nan nan nan nan nan nan nan nan nan nan nan nan nan nan nan nan nan nan nan nan nan nan nan nan nan nan nan nan nan nan nan nan nan nan nan nan nan nan 8 7 nan nan nan nan 10 9 9 10 11 19 23 24 23 23 22 22 21 21 20 20 20 21 21 22 22
16 12 11 13 10 11 12 9 nan nan nan nan nan nan nan nan nan nan nan nan nan nan nan nan nan nan nan nan nan nan nan nan nan nan nan nan nan nan nan nan nan nan nan nan nan nan nan nan nan nan nan nan nan nan nan nan nan nan 10 13 nan nan nan nan nan 10 11 9 8 12 18 21 20 20 20 20 19 19 18 18 18 18 19 20 20
14 12 10 10 10 10 nan 8 6 4 6 nan nan nan nan nan nan nan nan nan nan nan nan nan nan nan nan nan nan nan nan nan nan nan nan nan nan nan nan nan nan nan nan nan nan nan nan nan nan nan nan nan nan nan nan nan nan nan nan nan nan nan nan nan nan 10 8 9 9 8 15 17 17 16 16 17 18 18 18 18 17 18 18 nan nan
13 15 12 9 7 9 nan nan nan nan nan nan nan nan nan nan nan nan nan nan nan nan nan nan nan nan nan nan nan nan nan nan nan nan nan nan nan nan nan nan nan nan nan nan nan nan nan nan nan nan nan nan nan nan nan nan nan nan nan nan nan nan nan nan nan nan 10 nan nan nan nan 17 nan nan nan nan nan nan nan nan nan nan nan nan nan
12 16 13 10 9 9 nan nan nan nan nan nan nan nan nan nan nan nan nan nan nan nan nan nan nan nan nan nan nan nan nan nan nan nan nan nan nan nan nan nan nan nan nan nan nan nan nan nan nan nan nan nan nan nan nan nan nan nan nan nan nan nan nan nan nan nan nan nan nan nan nan nan nan nan nan nan nan nan nan nan nan nan nan nan nan
11 13 15 13 12 nan nan nan nan nan nan nan nan nan nan nan nan nan nan nan nan nan nan nan nan nan nan nan nan nan nan nan nan nan nan nan nan nan nan nan nan nan nan nan nan nan nan nan nan nan nan nan nan nan nan nan nan nan nan nan nan nan nan nan nan nan nan nan nan nan nan nan nan nan nan nan nan nan nan nan nan nan nan nan nan
nan nan 11 11 9 8 nan nan nan nan nan nan nan nan nan nan nan nan nan nan nan nan nan nan nan nan nan nan nan nan nan nan nan nan nan nan nan nan nan nan nan nan nan nan nan nan nan nan nan nan nan nan nan nan nan nan nan nan nan nan nan nan nan nan nan nan nan nan nan nan nan nan nan nan nan nan nan nan nan nan nan nan nan nan nan
nan nan nan nan 9 nan nan nan nan nan nan nan nan nan nan nan nan nan nan nan nan nan nan nan nan nan nan nan nan nan nan nan nan nan nan nan nan nan nan nan nan nan nan nan nan nan nan nan nan nan nan nan nan nan nan nan nan nan nan nan nan nan nan nan nan nan nan nan nan nan nan nan nan nan nan nan nan nan nan nan nan nan nan nan nan
12 nan nan nan nan nan nan nan nan nan nan nan nan nan nan nan nan nan nan nan nan nan 17 nan nan nan nan nan nan nan nan nan nan nan nan nan nan nan nan nan nan nan nan nan nan nan nan nan nan nan nan nan nan nan nan nan nan nan nan nan nan nan nan nan nan nan nan nan nan nan nan nan nan nan nan nan nan nan nan nan nan nan nan nan nan
11 nan nan nan nan nan nan nan nan nan nan nan nan nan nan nan nan nan nan nan nan nan nan nan nan nan nan nan nan nan nan nan nan nan nan nan nan nan nan nan nan nan nan nan nan nan nan nan nan nan nan nan nan nan nan nan nan nan nan nan nan nan nan nan nan nan nan nan nan nan nan nan nan nan nan nan nan nan nan nan nan nan nan nan nan
11 12 nan nan nan nan nan nan nan nan nan nan nan nan nan nan nan nan nan nan nan nan nan nan nan nan nan nan nan nan nan nan nan nan nan nan nan nan nan nan nan nan nan nan nan nan nan nan nan nan nan nan nan nan nan nan nan nan nan nan nan nan nan nan nan nan nan nan nan nan nan nan nan nan nan nan nan nan nan nan nan nan nan nan nan
nan nan nan nan nan nan nan nan nan nan nan nan nan nan nan nan nan nan nan nan nan nan nan nan nan nan nan nan nan nan nan nan nan nan nan nan nan nan nan nan nan nan nan nan nan nan nan nan nan nan nan nan nan nan nan nan nan nan nan nan nan nan nan nan nan nan nan nan nan nan nan nan nan nan nan nan nan nan nan nan nan nan nan nan nan
nan nan nan nan nan nan nan nan nan nan nan nan nan nan nan nan nan nan nan nan nan nan nan nan nan nan nan nan nan nan nan nan nan nan nan nan nan nan nan nan nan nan nan nan nan nan nan nan nan nan nan nan nan nan nan nan nan nan nan nan nan nan nan nan nan nan nan nan nan nan nan nan nan nan nan nan nan nan nan nan nan nan nan nan nan
nan nan nan nan nan nan nan nan nan nan nan nan nan nan nan nan nan nan nan nan nan nan nan nan nan nan nan nan nan nan nan nan nan nan nan nan nan nan nan nan nan nan nan nan nan nan nan nan nan nan nan nan nan nan nan nan nan nan nan nan nan nan nan nan nan nan nan nan nan nan nan nan nan nan nan nan nan nan nan nan nan nan nan nan nan
nan nan nan nan nan nan nan nan nan nan nan nan nan nan nan nan nan nan nan nan nan nan nan nan nan nan nan nan nan nan nan nan nan nan nan nan nan nan nan nan nan nan nan nan nan nan nan nan nan nan nan nan nan nan nan nan nan nan nan nan nan nan nan nan nan nan nan nan nan nan nan nan nan nan nan nan nan nan nan nan nan nan nan nan nan
nan nan nan nan nan nan nan nan nan nan nan nan nan 10 nan nan nan nan nan nan nan nan nan nan nan nan nan nan nan nan nan nan nan nan nan nan nan nan nan nan nan nan nan nan nan nan nan nan nan nan nan nan nan nan nan nan nan nan nan nan nan nan nan nan nan nan nan nan nan nan nan nan nan nan nan nan nan nan nan nan nan nan nan nan nan
nan nan nan nan nan nan nan nan nan nan nan nan 9 12 nan nan 13 13 13 nan nan nan nan nan nan nan nan nan nan nan nan nan nan nan nan nan nan nan nan nan nan nan nan nan nan nan nan nan nan nan nan nan nan nan nan nan nan nan nan nan nan nan nan nan nan nan nan nan nan nan nan nan nan nan nan nan nan nan nan nan nan nan nan nan nan
nan nan nan nan nan nan nan nan nan nan nan nan 8 nan nan 12 nan nan nan nan nan nan nan nan nan nan nan nan nan nan nan nan nan nan nan nan nan nan nan nan nan nan nan nan nan nan nan nan nan nan nan nan nan nan nan nan nan nan nan nan nan nan nan nan nan nan nan nan nan nan nan nan nan nan nan nan nan nan nan nan nan nan nan nan nan
nan nan nan nan nan nan nan nan nan nan nan nan 11 nan 12 nan 12 nan nan nan nan nan nan nan nan nan nan nan nan nan nan nan nan nan nan nan nan nan nan nan nan nan nan nan nan nan nan nan nan nan nan nan nan nan nan nan nan nan nan nan nan nan nan nan nan nan nan nan nan nan nan nan nan nan nan nan nan nan nan nan nan nan nan nan nan
nan nan nan nan nan nan nan nan nan nan nan nan nan nan nan nan nan nan nan nan nan nan nan nan nan nan nan nan nan nan nan nan nan nan nan nan nan nan nan nan nan nan nan nan nan nan nan nan nan nan nan nan nan nan nan nan nan nan nan nan nan nan nan nan nan nan nan nan nan nan nan nan nan nan nan nan nan nan nan nan nan nan nan nan nan
nan nan nan nan nan nan nan nan nan nan nan nan nan nan nan nan nan nan nan nan nan nan nan nan nan nan nan nan nan nan nan nan nan nan nan nan nan nan nan nan nan nan nan nan nan nan nan nan nan nan nan nan nan nan nan nan nan nan nan nan nan nan nan nan nan nan nan nan nan nan nan nan nan nan nan nan nan nan nan nan nan nan nan nan nan
nan nan nan nan nan nan nan nan nan nan nan nan nan nan nan nan nan nan nan 7 nan nan nan nan nan nan nan nan nan nan nan nan nan nan nan nan nan nan nan nan nan nan nan nan nan nan nan nan nan nan nan nan nan nan nan nan nan nan nan nan nan nan nan nan nan nan nan nan nan nan nan nan nan nan nan nan nan nan nan nan nan nan nan nan nan
nan 16 nan nan nan nan nan nan nan nan nan nan nan nan nan nan nan nan nan nan nan nan nan nan nan nan nan nan nan nan nan nan nan nan nan nan nan nan nan nan nan nan nan nan nan nan nan nan nan nan nan nan nan nan nan nan nan nan nan nan nan nan nan nan nan nan nan nan nan nan nan nan nan nan nan nan nan nan nan nan nan nan nan nan nan
nan nan nan nan nan nan nan nan nan nan nan nan nan nan nan nan nan nan nan nan nan nan nan nan nan nan nan nan nan 6 6 nan nan nan nan nan nan nan nan nan nan nan nan nan nan nan nan nan nan nan nan nan nan nan nan nan nan nan nan nan nan nan nan nan nan nan nan nan nan nan nan nan nan nan nan nan nan nan nan nan nan nan nan nan nan
Wind_Direction
312 311 311 308 305 302 302 303 303 302 302 300 297 296 294 294 295 293 291 288 289 288 286 283 281 280 279 280 280 280 281 281 281 280 279 279 279 277 277 278 276 272 271 272 270 270 269 268 266 266 261 259 259 259 260 261 261 260 259 259 258 259 259 263 263 262 261 263 261 257 253 252 253 254 255 254 253 252 249 249 261 262 261 257 255
315 313 311 308 306 304 303 303 302 302 301 300 296 294 293 292 295 293 291 289 288 288 285 283 282 280 280 280 281 281 281 281 281 280 280 279 278 277 275 273 272 273 271 272 269 265 263 260 260 260 258 257 259 260 260 261 261 261 260 262 264 265 265 264 265 263 265 265 261 258 256 254 257 258 256 254 253 251 250 249 257 260 259 257 253
315 312 310 308 305 303 301 302 303 302 301 297 294 293 292 292 295 293 291 291 290 289 287 286 285 283 283 283 283 282 281 281 280 280 279 278 277 276 274 273 270 268 270 270 268 264 260 257 257 255 256 255 255 256 255 255 257 258 260 263 267 269 269 267 265 262 262 262 256 247 250 257 259 259 259 257 255 254 254 254 253 255 256 249 249
313 311 311 309 304 302 302 302 301 302 301 298 296 295 295 295 295 294 294 292 292 291 291 290 288 287 286 284 283 283 282 281 279 278 278 276 275 273 273 272 271 273 271 272 269 264 261 258 256 256 255 254 253 251 249 249 252 255 256 260 262 266 267 264 258 252 257 257 255 265 281 282 266 258 260 261 260 260 259 258 258 258 255 251 251
307 309 310 309 306 303 301 301 302 302 303 302 301 300 299 299 298 296 294 293 294 294 292 289 287 286 285 284 284 283 282 279 278 276 275 274 272 271 270 271 271 272 273 271 267 261 257 254 251 252 251 250 249 246 246 246 248 248 246 249 253 253 250 248 250 253 253 261 270 281 280 273 277 259 261 262 265 265 265 264 262 262 259 258 254
311 312 311 309 307 305 302 301 301 301 301 304 306 306 304 302 298 297 295 295 294 292 288 287 286 285 284 284 283 282 280 279 277 276 274 274 272 271 271 270 268 268 267 267 263 256 256 253 250 247 245 245 244 244 244 244 244 244 242 241 241 240 243 242 245 242 247 264 273 279 286 290 283 272 262 265 265 266 266 264 264 263 265 263 259
313 316 314 309 307 305 302 301 301 301 301 303 305 306 306 301 297 295 295 294 291 287 286 288 288 287 287 285 282 279 278 278 276 275 275 272 270 268 266 266 265 264 265 263 261 259 254 254 251 248 246 245 244 244 242 241 240 241 240 239 238 244 239 241 248 256 259 271 281 284 287 286 290 284 266 265 265 266 264 263 265 268 266 265 262
314 315 312 308 307 303 300 300 300 300 303 305 304 301 298 298 297 295 294 292 290 289 290 290 290 290 287 281 278 277 277 276 274 273 271 269 266 263 261 258 259 260 259 259 258 255 255 255 255 253 251 250 249 246 244 241 238 236 237 241 241 243 242 241 259 277 266 268 277 285 278 273 284 284 266 263 263 267 271 266 264 263 263 262 262
313 313 308 305 304 301 301 300 299 302 305 306 303 298 295 294 292 291 291 291 292 293 293 291 290 289 283 279 278 277 275 274 271 270 268 265 263 259 253 253 252 254 255 257 258 259 261 261 262 262 261 259 256 252 249 245 242 238 240 243 243 241 241 244 262 268 270 280 280 290 296 285 278 281 267 261 260 262 262 266 265 261 262 263 264
312 310 307 306 306 303 303 301 303 304 304 302 300 296 293 292 291 292 293 293 294 294 294 293 290 287 281 278 278 277 273 269 267 264 263 263 260 255 250 246 247 248 251 255 260 263 266 268 268 267 266 265 260 256 252 248 245 245 244 244 241 242 256 259 255 264 286 286 278 286 294 290 282 272 262 261 259 262 265 266 272 271 274 269 267
313 309 306 305 306 305 303 301 304 307 306 305 302 297 294 292 293 294 295 295 296 297 297 295 290 284 281 279 278 273 269 266 263 260 260 259 256 254 251 249 248 248 251 256 262 264 267 270 271 271 271 268 262 258 254 251 246 247 248 245 243 245 259 261 265 279 283 291 295 290 284 275 279 268 258 253 255 260 263 266 270 269 269 271 270
309 308 306 306 304 304 304 304 306 306 306 303 300 297 295 295 296 296 296 297 298 298 297 294 289 283 282 280 276 271 267 265 262 261 257 255 255 255 257 257 257 258 259 259 260 265 269 273 275 275 273 267 261 258 255 249 246 246 248 244 246 249 256 276 288 295 297 292 291 287 283 283 280 269 261 270 277 271 270 266 266 269 269 271 271
309 308 307 306 303 300 301 301 303 304 303 302 298 295 294 294 294 296 296 298 299 300 297 292 288 287 284 280 276 270 268 265 262 261 257 255 255 258 260 260 260 260 261 262 266 269 274 280 285 281 272 266 262 258 256 249 246 247 251 252 246 244 258 291 301 300 298 297 294 285 283 281 282 262 263 266 269 271 272 274 275 269 269 272 267
311 308 307 304 303 300 300 299 300 301 300 300 299 297 299 300 302 299 298 301 303 301 298 295 293 289 285 280 275 273 271 268 267 264 262 259 258 258 259 260 261 262 264 264 266 271 278 283 300 306 284 276 270 266 260 256 250 257 257 260 263 262 263 291 300 317 316 301 281 278 275 276 267 253 256 260 264 266 269 274 270 268 267 264 265
310 306 304 305 304 303 299 299 301 300 301 302 300 300 303 304 304 301 303 303 303 303 303 301 296 289 285 281 278 275 272 273 273 270 265 262 260 258 258 260 265 266 265 267 267 273 282 291 303 310 302 292 279 272 264 256 262 267 268 273 265 266 275 309 311 321 315 298 303 287 295 288 250 244 246 249 250 256 259 263 270 270 268 258 254
307 305 305 302 302 302 302 302 301 300 301 299 300 303 305 305 304 305 303 302 301 304 309 307 295 287 287 285 281 279 276 276 272 269 265 262 262 260 261 266 271 273 273 272 277 279 287 294 294 305 306 303 295 281 272 262 274 289 293 296 306 296 281 297 324 339 330 350 359 352 306 213 240 244 254 257 262 258 255 255 254 250 248 259 262
309 305 294 299 302 302 303 303 304 302 302 301 302 307 308 307 309 308 303 303 299 299 304 300 297 298 297 299 299 292 288 281 275 267 262 263 263 267 271 278 278 285 286 286 285 284 286 292 296 293 305 308 301 287 274 271 296 307 311 315 309 339 346 340 349 343 329 329 347 102 97 91 237 237 245 253 251 256 257 259 255 259 261 253 250
305 298 299 300 301 303 304 307 309 310 308 305 307 308 309 312 311 307 308 308 311 308 310 311 308 312 319 321 317 308 301 294 285 nan nan nan 279 283 289 290 293 291 294 294 294 292 289 294 296 298 301 313 309 294 283 275 249 256 302 303 308 318 347 320 10 324 318 296 317 29 76 248 249 251 254 252 252 248 246 248 254 248 254 257 262
296 295 303 305 302 308 308 311 315 313 305 311 316 309 308 308 307 308 307 308 316 324 318 320 328 331 340 341 333 325 321 307 295 nan nan nan nan nan 297 301 302 302 300 301 300 300 302 299 303 300 304 310 311 296 290 280 236 200 232 282 289 287 290 311 291 296 299 318 330 15 332 254 252 250 250 250 253 256 256 259 254 254 256 258 259
301 297 290 287 292 295 299 305 311 311 311 308 307 312 314 307 300 305 314 324 330 339 344 343 349 351 353 354 354 356 338 322 307 nan nan nan nan nan nan 313 314 314 315 315 314 311 309 308 306 312 311 310 300 293 288 298 267 203 188 218 247 297 308 nan nan 298 309 303 305 329 270 261 258 258 257 257 257 255 253 253 257 260 262 264 265
297 295 297 300 295 293 291 303 308 308 311 314 317 310 313 309 317 335 345 348 348 349 nan nan nan 356 353 357 6 345 317 nan nan nan nan nan nan nan nan nan 325 322 324 327 331 323 313 311 311 314 317 310 297 297 294 281 248 229 194 216 311 281 nan nan nan 293 298 303 307 303 272 270 269 268 268 268 266 264 262 262 265 267 268 269 271
297 296 295 297 291 292 294 306 317 317 305 307 310 318 330 338 3 25 16 9 7 2 8 10 5 1 5 355 344 341 352 nan nan nan nan nan nan nan nan nan nan 332 nan 349 359 340 335 329 328 326 321 316 317 301 289 281 261 249 217 177 nan 298 nan nan nan nan 288 301 302 293 280 277 275 273 272 272 270 269 269 269 271 272 273 275 276
293 296 294 293 292 298 300 309 330 327 326 326 336 346 6 41 24 24 16 17 19 5 nan 359 nan nan nan nan 330 nan nan nan nan nan nan nan nan nan nan nan nan nan nan nan nan 16 349 348 336 333 330 331 331 301 300 296 289 305 303 299 268 nan nan nan nan nan 285 290 296 278 276 273 272 271 270 269 270 270 270 272 274 276 278 278 279
303 302 294 284 286 292 310 310 327 346 320 322 334 12 59 100 83 45 7 16 34 nan nan nan nan nan nan 341 nan nan nan 334 nan nan nan 346 nan nan nan nan nan 1 nan nan nan 19 7 nan 1 340 341 341 314 319 315 292 279 284 285 279 274 279 276 nan nan 275 280 280 284 275 275 273 273 272 269 267 267 268 270 269 268 270 274 278 280
299 297 294 299 298 320 323 323 331 312 315 347 23 151 nan nan nan nan nan nan nan nan nan nan nan nan 347 nan nan nan nan nan nan nan nan nan nan nan nan nan nan nan nan nan nan nan 359 nan nan 347 337 348 322 317 323 312 307 293 282 275 273 267 270 271 272 273 272 272 279 276 273 270 266 266 267 270 273 275 272 272 275 275 277 278 279
299 295 292 300 308 309 315 338 318 314 346 3 nan nan 167 nan nan nan nan nan nan nan nan nan nan nan nan nan 343 nan nan nan nan nan nan nan nan nan nan nan nan nan nan nan nan nan nan nan nan nan 348 356 335 337 343 337 329 352 296 282 284 291 287 276 267 268 266 269 269 270 270 270 270 269 270 271 273 272 276 279 277 278 278 279 278
295 295 294 285 296 312 326 320 314 329 nan nan nan nan nan nan nan nan nan nan 331 nan nan nan nan nan nan nan nan nan nan nan nan nan nan nan nan nan nan nan nan nan nan nan nan nan nan nan nan nan nan nan nan nan 360 nan 352 nan 318 311 327 306 293 294 292 281 267 265 264 268 273 272 271 272 274 276 277 277 278 278 278 277 277 277 nan
294 300 301 296 312 315 314 312 313 347 345 nan nan nan nan nan nan nan nan nan nan nan nan nan nan nan nan nan nan nan nan nan nan nan nan nan nan nan nan nan nan nan nan nan nan nan nan nan nan nan nan nan nan nan nan nan nan nan 303 351 nan nan nan nan 311 296 285 276 273 266 268 271 271 274 275 276 276 277 276 276 277 276 276 277 277
296 296 294 301 322 314 320 316 nan nan nan nan nan nan nan nan nan nan nan nan nan nan nan nan nan nan nan nan nan nan nan nan nan nan nan nan nan nan nan nan nan nan nan nan nan nan nan nan nan nan nan nan nan nan nan nan nan nan 352 17 nan nan nan nan nan 319 311 302 290 274 267 271 272 274 275 275 276 276 277 277 276 277 278 279 280
299 294 295 292 302 317 nan 311 290 254 246 nan nan nan nan nan nan nan nan nan nan nan nan nan nan nan nan nan nan nan nan nan nan nan nan nan nan nan nan nan nan nan nan nan nan nan nan nan nan nan nan nan nan nan nan nan nan nan nan nan nan nan nan nan nan 335 328 326 322 308 279 275 274 273 275 277 278 278 280 280 279 281 282 nan nan
301 305 305 309 319 322 nan nan nan nan nan nan nan nan nan nan nan nan nan nan nan nan nan nan nan nan nan nan nan nan nan nan nan nan nan nan nan nan nan nan nan nan nan nan nan nan nan nan nan nan nan nan nan nan nan nan nan nan nan nan nan nan nan nan nan nan 343 nan nan nan nan 291 nan nan nan nan nan nan nan nan nan nan nan nan nan
309 304 303 323 346 309 nan nan nan nan nan nan nan nan nan nan nan nan nan nan nan nan nan nan nan nan nan nan nan nan nan nan nan nan nan nan nan nan nan nan nan nan nan nan nan nan nan nan nan nan nan nan nan nan nan nan nan nan nan nan nan nan nan nan nan nan nan nan nan nan nan nan nan nan nan nan nan nan nan nan nan nan nan nan nan
301 306 315 324 299 nan nan nan nan nan nan nan nan nan nan nan nan nan nan nan nan nan nan nan nan nan nan nan nan nan nan nan nan nan nan nan nan nan nan nan nan nan nan nan nan nan nan nan nan nan nan nan nan nan nan nan nan nan nan nan nan nan nan nan nan nan nan nan nan nan nan nan nan nan nan nan nan nan nan nan nan nan nan nan nan
nan nan 301 303 299 306 nan nan nan nan nan nan nan nan nan nan nan nan nan nan nan nan nan nan nan nan nan nan nan nan nan nan nan nan nan nan nan nan nan nan nan nan nan nan nan nan nan nan nan nan nan nan nan nan nan nan nan nan nan nan nan nan nan nan nan nan nan nan nan nan nan nan nan nan nan nan nan nan nan nan nan nan nan nan nan
nan nan nan nan 306 nan nan nan nan nan nan nan nan nan nan nan nan nan nan nan nan nan nan nan nan nan nan nan nan nan nan nan nan nan nan nan nan nan nan nan nan nan nan nan nan nan nan nan nan nan nan nan nan nan nan nan nan nan nan nan nan nan nan nan nan nan nan nan nan nan nan nan nan nan nan nan nan nan nan nan nan nan nan nan nan
299 nan nan nan nan nan nan nan nan nan nan nan nan nan nan nan nan nan nan nan nan nan 322 nan nan nan nan nan nan nan nan nan nan nan nan nan nan nan nan nan nan nan nan nan nan nan nan nan nan nan nan nan nan nan nan nan nan nan nan nan nan nan nan nan nan nan nan nan nan nan nan nan nan nan nan nan nan nan nan nan nan nan nan nan nan
306 nan nan nan nan nan nan nan nan nan nan nan nan nan nan nan nan nan nan nan nan nan nan nan nan nan nan nan nan nan nan nan nan nan nan nan nan nan nan nan nan nan nan nan nan nan nan nan nan nan nan nan nan nan nan nan nan nan nan nan nan nan nan nan nan nan nan nan nan nan nan nan nan nan nan nan nan nan nan nan nan nan nan nan nan
311 310 nan nan nan nan nan nan nan nan nan nan nan nan nan nan nan nan nan nan nan nan nan nan nan nan nan nan nan nan nan nan nan nan nan nan nan nan nan nan nan nan nan nan nan nan nan nan nan nan nan nan nan nan nan nan nan nan nan nan nan nan nan nan nan nan nan nan nan nan nan nan nan nan nan nan nan nan nan nan nan nan nan nan nan
nan nan nan nan nan nan nan nan nan nan nan nan nan nan nan nan nan nan nan nan nan nan nan nan nan nan nan nan nan nan nan nan nan nan nan nan nan nan nan nan nan nan nan nan nan nan nan nan nan nan nan nan nan nan nan nan nan nan nan nan nan nan nan nan nan nan nan nan nan nan nan nan nan nan nan nan nan nan nan nan nan nan nan nan nan
nan nan nan nan nan nan nan nan nan nan nan nan nan nan nan nan nan nan nan nan nan nan nan nan nan nan nan nan nan nan nan nan nan nan nan nan nan nan nan nan nan nan nan nan nan nan nan nan nan nan nan nan nan nan nan nan nan nan nan nan nan nan nan nan nan nan nan nan nan nan nan nan nan nan nan nan nan nan nan nan nan nan nan nan nan
nan nan nan nan nan nan nan nan nan nan nan nan nan nan nan nan nan nan nan nan nan nan nan nan nan nan nan nan nan nan nan nan nan nan nan nan nan nan nan nan nan nan nan nan nan nan nan nan nan nan nan nan nan nan nan nan nan nan nan nan nan nan nan nan nan nan nan nan nan nan nan nan nan nan nan nan nan nan nan nan nan nan nan nan nan
nan nan nan nan nan nan nan nan nan nan nan nan nan nan nan nan nan nan nan nan nan nan nan nan nan nan nan nan nan nan nan nan nan nan nan nan nan nan nan nan nan nan nan nan nan nan nan nan nan nan nan nan nan nan nan nan nan nan nan nan nan nan nan nan nan nan nan nan nan nan nan nan nan nan nan nan nan nan nan nan nan nan nan nan nan
nan nan nan nan nan nan nan nan nan nan nan nan nan 284 nan nan nan nan nan nan nan nan nan nan nan nan nan nan nan nan nan nan nan nan nan nan nan nan nan nan nan nan nan nan nan nan nan nan nan nan nan nan nan nan nan nan nan nan nan nan nan nan nan nan nan nan nan nan nan nan nan nan nan nan nan nan nan nan nan nan nan nan nan nan nan
nan nan nan nan nan nan nan nan nan nan nan nan 256 276 nan nan 296 302 302 nan nan nan nan nan nan nan nan nan nan nan nan nan nan nan nan nan nan nan nan nan nan nan nan nan nan nan nan nan nan nan nan nan nan nan nan nan nan nan nan nan nan nan nan nan nan nan nan nan nan nan nan nan nan nan nan nan nan nan nan nan nan nan nan nan nan
nan nan nan nan nan nan nan nan nan nan nan nan 265 nan nan 292 nan nan nan nan nan nan nan nan nan nan nan nan nan nan nan nan nan nan nan nan nan nan nan nan nan nan nan nan nan nan nan nan nan nan nan nan nan nan nan nan nan nan nan nan nan nan nan nan nan nan nan nan nan nan nan nan nan nan nan nan nan nan nan nan nan nan nan nan nan
nan nan nan nan nan nan nan nan nan nan nan nan 273 nan 277 nan 294 nan nan nan nan nan nan nan nan nan nan nan nan nan nan nan nan nan nan nan nan nan nan nan nan nan nan nan nan nan nan nan nan nan nan nan nan nan nan nan nan nan nan nan nan nan nan nan nan nan nan nan nan nan nan nan nan nan nan nan nan nan nan nan nan nan nan nan nan
nan nan nan nan nan nan nan nan nan nan nan nan nan nan nan nan nan nan nan nan nan nan nan nan nan nan nan nan nan nan nan nan nan nan nan nan nan nan nan nan nan nan nan nan nan nan nan nan nan nan nan nan nan nan nan nan nan nan nan nan nan nan nan nan nan nan nan nan nan nan nan nan nan nan nan nan nan nan nan nan nan nan nan nan nan
nan nan nan nan nan nan nan nan nan nan nan nan nan nan nan nan nan nan nan nan nan nan nan nan nan nan nan nan nan nan nan nan nan nan nan nan nan nan nan nan nan nan nan nan nan nan nan nan nan nan nan nan nan nan nan nan nan nan nan nan nan nan nan nan nan nan nan nan nan nan nan nan nan nan nan nan nan nan nan nan nan nan nan nan nan
nan nan nan nan nan nan nan nan nan nan nan nan nan nan nan nan nan nan nan 316 nan nan nan nan nan nan nan nan nan nan nan nan nan nan nan nan nan nan nan nan nan nan nan nan nan nan nan nan nan nan nan nan nan nan nan nan nan nan nan nan nan nan nan nan nan nan nan nan nan nan nan nan nan nan nan nan nan nan nan nan nan nan nan nan nan
nan 300 nan nan nan nan nan nan nan nan nan nan nan nan nan nan nan nan nan nan nan nan nan nan nan nan nan nan nan nan nan nan nan nan nan nan nan nan nan nan nan nan nan nan nan nan nan nan nan nan nan nan nan nan nan nan nan nan nan nan nan nan nan nan nan nan nan nan nan nan nan nan nan nan nan nan nan nan nan nan nan nan nan nan nan
nan nan nan nan nan nan nan nan nan nan nan nan nan nan nan nan nan nan nan nan nan nan nan nan nan nan nan nan nan 164 168 nan nan nan nan nan nan nan nan nan nan nan nan nan nan nan nan nan nan nan nan nan nan nan nan nan nan nan nan nan nan nan nan nan nan nan nan nan nan nan nan nan nan nan nan nan nan nan nan nan nan nan nan nan nan